STARLINK-38365, 100516

Orbit data source: Space-Track

STARLINK-38365, 100516 is a payload satellite owned by SpaceX/Seattle (US) in LEO that was launched on Wed, 26 Aug 2026 UTC launched from the Air Force Western Test Range (AFWTR). Payload-class satellites include a variety of spacecraft equipped with specific instruments for various scientific and technological missions. These include communications satellites like Starlink; space stations such as the ISS; scientific satellites like the Hubble; Earth observation satellites from companies like Planet Labs, Umbra, and HawkEye 360; GPS; miniature CubeSats for education and research; and military/defense satellites.

Loading next visibility...
Identifier
100516, 2026-197Q
Orbit
LEO
Country
Flag of USUS
Related business
Manufacturer
SpaceX/Seattle
Mission
Operational spacecraft
Bus & Motor
STARLINK V2MO, Unknown motor
Mass
575 kg wet, ~530 kg dry
Launch date (UTC)
2026-08-26 (2 weeks ago)
Launch vehicle
Unknown
Launch site
Air Force Western Test Range (AFWTR)
Object type
Payload
Rocket body
Debris
Shape & HBR
BOX + PAN, 17.7 m
Radar Cross Section
RCS unknown

Expand to show TLE details & history
Last TLE update: 9 hours ago

TLE from 9 hours ago
0 STARLINK-38365
1 A0516U 26197Q   26251.43237157  .00105702  00000-0  50891-3 0  9996
2 A0516  69.9992 156.0730 0003040 284.8336  75.2529 15.82181108  2086
Epoch: 2026-09-08T10:22Z
TLE epoch observation values (Epoch: 2026-09-08T10:22:36.903Z)
Latitude
-0.00004°
Longitude
12.92036°
Altitude
326.269 km
Speed
7.713 km/s
True Right ascension
10h 24m 17s
True Declination
0° 00' 00"
Sunlit
Object was in daylight at epoch
Visualization orbit readout
Latitude
Unknown
Longitude
Unknown
Altitude
Unknown
Speed
Unknown
Apparent Right ascension
Unknown
Apparent Declination
Unknown
Sunlit
N/A
Visualization observer readout
Local Sidereal Time
11:16:27
Azimuth
Unknown
Elevation
Unknown
Doppler factor
Unknown
Orbital elements
Apogee altitude
324.183 km
Perigee altitude
320.109 km
Semi-major axis
6,700.283 km
Eccentricity
0.0003
Inclination
69.9992°
RAAN
156.073°
Arg. of periapsis
284.8336°
True anomaly
75.28659°
Mean anomaly
75.2529°
Eccentric anomaly
75.26975°
Mean motion
3.95734 °/min
Orbital period
90.97 mins
BSTAR
0.00050891
Loading maneuver chart data...
Computing Atmospheric mass density...
Loading historical data...
Loading historical data...
Loading historical data...
Loading historical data...
Loading historical data...
Loading historical data...
Loading historical data...

Documentation

Showing up to 5 results
|